Details From SBGR - Sao Paulo - Guarulhos
To SBPA - Salgado Filho
Flight Number -
Tags decoded
Created
Modified
Stats Distance 468 nm / 866 km
Max Altitude 0 ft / 0 m
Waypoints 2
Social Downloads 0
Likes 0
Share VATSIM

Download

Looking for another format? Having issues loading an existing format? Contact us
Advertisement - Login to hide

Notes

SBGR UBSOD UZ38 EKUTI SBPA

Route

SBGR SBPA

ID Type Via Altitude Latitude Longitude Leg Dist Tot Dist Heading (true) Name
O SBGR APT - 0 ft / 0 m -23.43233˚ -46.46968˚ - 0 nm - Sao Paulo - Guarulhos
O SBPA APT - 0 ft / 0 m -29.99443˚ -51.17143˚ 467 nm 467 nm 212° / 214° Salgado Filho

Altitude Profile

Advertisement - Login to hide

Weather


0- 5 10 15 20 25 30 35+ Temperature / ° C

Clouds and Precipitation
Forecast for 2018-04-23 12:00 UTC. Updated 21 minutes ago

Ground ~20,000 ft ~40,000 ft Winds

SBGR

Details ICAO SBGR (GRU)
Name Sao Paulo - Guarulhos
Region Brazil
Timezone America/Sao_Paulo (UTC-3.0)
Stats Elevation 2,459 ft / 750 m (AMSL)
Location -23.432333° -46.469675°
Runways 2
Magnetic Variation 21.456° W

METAR

SBGR 231100Z 07008KT 7000 3000E OVC006 17/17 Q1021

Decode

TAF

TAF TAF SBGR 230206Z 2306/2412 08003KT 7000 FEW010TN14/2309Z TX26/2318Z BECMG 2307/2309 2000 BR BCFG BKN002 BECMG 2311/2313 06010KT CAVOK BECMG 2315/2317 12005KT SCT040 BECMG 2319/2321 FEW015 PROB30 2321/2323 BKN015 BECMG 2323/2401 00000KT CAVOK BECMG 2406/2408 08003KT PROB30 2409/2411 4000 BR SCT003 RMK PGF

Decode

Departure Runways

ID Width Length Bearing (true) Bearing (mag) Surface Threshold Offset Overrun Length
09L 148 ft / 45 m 12,676 ft / 3,864 m 73.61° 95.07° Asphalt 495 ft / 151 m 0 ft / 0 m
09R 148 ft / 45 m 9,950 ft / 3,033 m 73.60° 95.06° Asphalt 0 ft / 0 m 197 ft / 60 m
27L 148 ft / 45 m 9,950 ft / 3,033 m 253.59° 275.05° Asphalt 0 ft / 0 m 197 ft / 60 m
27R 148 ft / 45 m 12,676 ft / 3,864 m 253.60° 275.06° Asphalt 197 ft / 60 m 0 ft / 0 m

SBPA

Details ICAO SBPA (POA)
Name Salgado Filho
Region Brazil
Timezone America/Sao_Paulo (UTC-3.0)
Stats Elevation 11 ft / 3 m (AMSL)
Location -29.994428° -51.171426°
Runways 1
Magnetic Variation 16.932° W

METAR

SBPA 231100Z 07004KT CAVOK 21/20 Q1015

Decode

TAF

Not found

Destination Runways

ID Width Length Bearing (true) Bearing (mag) Surface Threshold Offset Overrun Length
11 138 ft / 42 m 7,487 ft / 2,282 m 91.60° 108.53° Asphalt 0 ft / 0 m 230 ft / 70 m
29 138 ft / 42 m 7,487 ft / 2,282 m 271.59° 288.52° Asphalt 0 ft / 0 m 197 ft / 60 m

Approach Navaids

Runway Type Ident Frequency Range Bearing (true) Bearing (mag) Slope Elevation
11 Localiser IPA 110.30 MHz 18 nm / 33 km 90.92° 107.86° - 11 ft / 3 m (AMSL)
11 Glidescope IPA 110.30 MHz 10 nm / 19 km 91.60° 108.53° 3.00° 11 ft / 3 m (AMSL)

Popular Alternatives